GW0714 Weather Reports


Display with metric or nautical units.
time (UTC)temp
F
wind
direction
speed
MPH
gust
MPH
rain 1hr
in
rain 24hr
in
rain mn
in
humidity
%
barometer
mb
20260507005530 68 43 2.0 6.0 0.00 0.16 0.08 68 1018.0
20260507005029 68 352 1.0 6.0 0.00 0.16 0.08 68 1018.0
20260507004542 68 346 0.0 4.0 0.00 0.16 0.08 69 1017.9
20260507004030 68 14 1.0 4.0 0.00 0.16 0.08 67 1018.0
20260507003530 68 135 1.0 6.0 0.00 0.16 0.08 68 1018.0
20260507003039 68 53 2.0 6.0 0.00 0.16 0.08 68 1018.1
20260507002532 68 98 2.0 6.0 0.00 0.16 0.08 68 1018.1
20260507002031 68 167 1.0 5.0 0.00 0.16 0.08 68 1018.2
20260507001539 68 163 1.0 5.0 0.00 0.16 0.08 67 1018.2
20260507001029 68 150 2.0 5.0 0.00 0.16 0.08 68 1018.1
20260507000531 68 46 1.0 4.0 0.00 0.16 0.08 69 1018.2
20260507000044 68 111 2.0 4.0 0.00 0.16 0.08 69 1018.3
20260506235530 67 90 1.0 7.0 0.00 0.17 0.08 70 1018.2
20260506235030 67 32 1.0 7.0 0.00 0.17 0.08 72 1018.2
20260506234540 67 136 3.0 7.0 0.00 0.17 0.08 69 1018.2
20260506234029 68 143 1.0 5.0 0.00 0.17 0.08 69 1018.2
20260506233530 68 0 1.0 7.0 0.00 0.17 0.08 69 1018.2
20260506233038 67 118 2.0 7.0 0.00 0.17 0.08 70 1018.2
20260506232529 67 151 3.0 7.0 0.00 0.17 0.08 69 1018.3
20260506232029 68 315 1.0 8.0 0.00 0.17 0.08 70 1018.3
20260506231539 67 53 2.0 8.0 0.00 0.17 0.08 71 1018.3
20260506231032 67 17 2.0 8.0 0.00 0.17 0.08 71 1018.4
20260506230529 66 322 2.0 8.0 0.00 0.17 0.08 71 1018.4
20260506230045 67 158 2.0 8.0 0.00 0.17 0.08 71 1018.5
20260506225530 67 101 2.0 8.0 0.00 0.17 0.08 70 1018.6
20260506225028 66 327 2.0 8.0 0.00 0.17 0.08 71 1018.6
20260506224542 66 239 2.0 5.0 0.00 0.17 0.08 73 1018.8
20260506224028 66 0 2.0 6.0 0.00 0.17 0.08 71 1018.8
20260506223529 67 120 1.0 8.0 0.00 0.17 0.08 70 1018.8
20260506223038 67 327 4.0 8.0 0.00 0.17 0.08 72 1018.9
20260506222527 65 329 1.0 5.0 0.00 0.17 0.08 75 1018.9
20260506222029 64 56 1.0 7.0 0.00 0.17 0.08 75 1019.1
20260506221539 64 117 3.0 7.0 0.00 0.17 0.08 74 1019.2
20260506221026 64 130 1.0 5.0 0.00 0.17 0.08 74 1019.1
20260506220529 63 157 1.0 4.0 0.00 0.17 0.08 78 1019.3
20260506220039 63 333 1.0 5.0 0.00 0.17 0.08 78 1019.5
20260506215526 62 79 1.0 7.0 0.00 0.18 0.08 79 1019.6
20260506215029 62 161 2.0 7.0 0.00 0.18 0.08 78 1019.7
20260506214537 62 129 1.0 5.0 0.00 0.18 0.08 78 1019.6
20260506214026 62 0 1.0 5.0 0.00 0.18 0.08 79 1019.7
20260506213527 61 34 0.0 4.0 0.00 0.18 0.08 80 1019.8
20260506213036 61 0 0.0 4.0 0.00 0.18 0.08 80 1019.8
20260506212527 61 192 0.0 3.0 0.00 0.18 0.08 80 1019.9
20260506212027 61 155 1.0 6.0 0.00 0.18 0.08 80 1020.0
20260506211540 61 0 1.0 6.0 0.00 0.18 0.08 81 1020.0
20260506211030 60 324 1.0 5.0 0.01 0.18 0.08 81 1020.1
20260506210532 60 145 1.0 5.0 0.01 0.18 0.08 80 1020.1
20260506210038 60 0 0.0 5.0 0.01 0.18 0.08 81 1020.2
20260506205526 60 139 0.0 3.0 0.01 0.18 0.08 81 1020.2
20260506205026 60 173 0.0 5.0 0.01 0.18 0.08 81 1020.3
20260506204538 60 178 0.0 6.0 0.01 0.18 0.08 82 1020.3
20260506204029 60 138 2.0 6.0 0.01 0.18 0.08 82 1020.4
20260506203528 60 144 2.0 6.0 0.01 0.18 0.08 81 1020.3
20260506203042 60 148 2.0 6.0 0.01 0.18 0.08 82 1020.3
20260506202529 60 98 1.0 4.0 0.01 0.18 0.08 82 1020.4
20260506202029 60 109 1.0 4.0 0.01 0.18 0.08 82 1020.4
20260506201555 60 36 0.0 4.0 0.01 0.18 0.08 82 1020.4
20260506201032 60 121 2.0 5.0 0.00 0.17 0.07 82 1020.4
20260506200529 60 0 1.0 8.0 0.00 0.17 0.07 82 1020.4
20260506200042 60 145 2.0 8.0 0.00 0.17 0.07 82 1020.4
20260506195531 60 143 1.0 5.0 0.00 0.17 0.07 82 1020.4
20260506195032 60 0 1.0 5.0 0.00 0.17 0.07 81 1020.4
20260506194548 60 134 0.0 5.0 0.00 0.17 0.07 83 1020.5
20260506194030 60 18 0.0 5.0 0.00 0.17 0.07 83 1020.5
20260506193530 60 151 0.0 3.0 0.00 0.17 0.07 82 1020.6
20260506193052 60 122 1.0 4.0 0.00 0.17 0.07 81 1020.6
20260506192530 59 113 0.0 4.0 0.00 0.17 0.07 83 1020.7
20260506192030 59 184 1.0 4.0 0.00 0.17 0.07 83 1020.7
20260506191541 59 96 1.0 6.0 0.00 0.17 0.07 84 1020.8
20260506191029 59 145 2.0 6.0 0.00 0.17 0.07 83 1020.8
20260506190530 59 165 1.0 5.0 0.00 0.17 0.07 81 1020.8
20260506190045 59 141 2.0 5.0 0.00 0.17 0.07 80 1020.9
20260506185531 59 0 0.0 4.0 0.00 0.18 0.07 79 1020.8
20260506185031 59 128 1.0 4.0 0.00 0.18 0.07 78 1020.9
20260506184550 59 0 2.0 4.0 0.00 0.18 0.07 77 1020.8
20260506184030 59 0 0.0 4.0 0.00 0.18 0.07 79 1020.8
20260506183531 59 0 2.0 4.0 0.00 0.18 0.07 79 1020.8
20260506183050 59 0 0.0 4.0 0.00 0.18 0.07 80 1020.9
20260506182530 59 0 2.0 4.0 0.00 0.18 0.07 80 1020.9
20260506182033 59 128 0.0 4.0 0.00 0.18 0.07 79 1020.8
20260506181550 59 0 1.0 5.0 0.00 0.18 0.07 78 1020.9
20260506181032 59 159 2.0 5.0 0.00 0.18 0.07 79 1020.9
20260506180531 59 0 1.0 4.0 0.00 0.18 0.07 81 1020.8
20260506180051 58 254 0.0 4.0 0.00 0.18 0.07 81 1020.9
20260506175533 58 0 1.0 8.0 0.00 0.19 0.07 81 1020.8
20260506175033 58 169 2.0 8.0 0.00 0.19 0.07 81 1020.8
20260506174537 58 140 1.0 8.0 0.00 0.19 0.07 79 1020.7
20260506174035 58 149 1.0 3.0 0.01 0.19 0.07 80 1020.8
20260506173531 58 0 0.0 5.0 0.01 0.19 0.07 79 1020.8
20260506173100 59 146 2.0 5.0 0.01 0.19 0.07 79 1020.8
20260506172531 58 0 0.0 6.0 0.01 0.19 0.07 82 1020.8
20260506172032 58 0 1.0 6.0 0.01 0.19 0.07 80 1020.8
20260506171551 58 167 0.0 4.0 0.01 0.19 0.07 82 1020.7
20260506171030 58 0 0.0 4.0 0.01 0.19 0.07 81 1020.8
20260506170527 58 0 1.0 5.0 0.01 0.19 0.07 82 1020.8
20260506170038 58 145 2.0 5.0 0.01 0.19 0.07 82 1020.8
20260506165533 57 136 2.0 5.0 0.01 0.20 0.07 83 1020.8
20260506165030 57 140 0.0 4.0 0.01 0.20 0.07 86 1020.7
20260506164539 57 0 1.0 4.0 0.01 0.20 0.07 86 1020.7
20260506164029 57 0 0.0 4.0 0.00 0.19 0.06 87 1020.7
20260506163532 57 0 1.0 4.0 0.00 0.19 0.06 86 1020.7
20260506163052 57 148 1.0 4.0 0.00 0.19 0.06 87 1020.7
20260506162532 57 0 0.0 4.0 0.00 0.19 0.06 88 1020.6
20260506162032 56 144 1.0 4.0 0.00 0.19 0.06 88 1020.6
20260506161542 56 152 1.0 3.0 0.00 0.19 0.06 88 1020.5
20260506161027 56 0 0.0 3.0 0.00 0.19 0.06 89 1020.5
20260506160535 56 333 0.0 2.0 0.00 0.19 0.06 89 1020.4
20260506160035 56 0 0.0 2.0 0.00 0.19 0.06 88 1020.5
20260506155529 56 0 0.0 2.0 0.00 0.19 0.06 89 1020.5
20260506155029 56 329 0.0 2.0 0.00 0.19 0.06 90 1020.5
20260506154547 56 0 0.0 2.0 0.00 0.19 0.06 89 1020.5
20260506154029 56 329 0.0 2.0 0.01 0.19 0.06 90 1020.4
20260506153525 56 0 0.0 1.0 0.01 0.19 0.06 90 1020.4
20260506153041 55 0 0.0 0.0 0.01 0.19 0.06 91 1020.4
20260506152531 55 0 0.0 0.0 0.01 0.19 0.06 91 1020.5
20260506152032 55 0 0.0 0.0 0.01 0.19 0.06 91 1020.4
20260506151540 55 0 0.0 0.0 0.01 0.19 0.06 92 1020.5
20260506151029 55 0 0.0 0.0 0.01 0.19 0.06 92 1020.5
20260506150526 55 0 0.0 0.0 0.01 0.19 0.06 92 1020.6
20260506150039 55 0 0.0 0.0 0.01 0.19 0.06 92 1020.5
20260506145526 55 0 0.0 0.0 0.01 0.20 0.06 93 1020.4
20260506145029 54 0 0.0 0.0 0.01 0.20 0.06 93 1020.5
20260506144538 54 0 0.0 0.0 0.01 0.20 0.06 93 1020.4
20260506144026 54 0 0.0 0.0 0.00 0.19 0.05 93 1020.5
20260506143529 54 0 0.0 0.0 0.00 0.19 0.05 93 1020.4
20260506143042 54 0 0.0 0.0 0.00 0.19 0.05 93 1020.4
20260506142525 54 0 0.0 0.0 0.01 0.19 0.05 93 1020.3
20260506142025 54 0 0.0 0.0 0.01 0.19 0.05 93 1020.2
20260506141539 53 0 0.0 0.0 0.01 0.19 0.05 94 1020.2
20260506141032 53 0 0.0 0.0 0.01 0.19 0.05 94 1020.1
20260506140530 53 0 0.0 0.0 0.01 0.19 0.05 94 1020.1
20260506140049 53 0 0.0 0.0 0.01 0.19 0.05 93 1020.1
20260506135531 53 0 0.0 0.0 0.01 0.20 0.05 93 1020.1
20260506135032 53 0 0.0 0.0 0.01 0.20 0.05 93 1020.1
20260506134535 53 0 0.0 0.0 0.01 0.20 0.05 94 1020.1
20260506134031 53 0 0.0 0.0 0.01 0.20 0.05 94 1020.0
20260506133531 53 0 0.0 0.0 0.01 0.20 0.05 94 1020.0
20260506133045 53 0 0.0 0.0 0.00 0.19 0.04 94 1019.9
20260506132531 53 0 0.0 0.0 0.00 0.19 0.04 94 1019.9
20260506132029 53 0 0.0 0.0 0.00 0.19 0.04 94 1019.9
20260506131534 53 0 0.0 0.0 0.00 0.19 0.04 94 1019.8
20260506131031 53 0 0.0 0.0 0.00 0.19 0.04 94 1019.9
20260506130531 53 0 0.0 0.0 0.00 0.19 0.04 94 1019.8
20260506130039 53 0 0.0 0.0 0.00 0.19 0.04 94 1019.8
20260506125528 53 0 0.0 0.0 0.00 0.21 0.04 94 1019.8
20260506125030 53 0 0.0 0.0 0.01 0.21 0.04 94 1019.7
20260506124540 53 0 0.0 0.0 0.01 0.21 0.04 93 1019.8
20260506124029 53 0 0.0 0.0 0.01 0.21 0.04 93 1019.7
20260506123531 53 0 0.0 0.0 0.01 0.21 0.04 93 1019.7
20260506123039 53 0 0.0 0.0 0.01 0.21 0.04 93 1019.7
20260506122530 53 0 0.0 0.0 0.01 0.21 0.04 93 1019.6
20260506122033 53 0 0.0 0.0 0.01 0.21 0.04 93 1019.6
20260506121538 53 0 0.0 0.0 0.01 0.21 0.04 93 1019.6
20260506121031 53 0 0.0 1.0 0.01 0.21 0.04 93 1019.5
20260506120531 53 0 0.0 1.0 0.01 0.21 0.04 93 1019.5
20260506120050 53 0 0.0 1.0 0.01 0.21 0.04 93 1019.5
20260506115531 53 0 0.0 1.0 0.01 0.22 0.04 93 1019.5
20260506115031 53 0 0.0 0.0 0.00 0.21 0.03 93 1019.5
20260506114601 53 0 0.0 0.0 0.00 0.21 0.03 93 1019.5
20260506114030 53 0 0.0 0.0 0.00 0.21 0.03 93 1019.5
20260506113530 53 0 0.0 0.0 0.00 0.21 0.03 93 1019.4
20260506113038 53 0 0.0 0.0 0.00 0.21 0.03 93 1019.4
20260506112532 53 0 0.0 0.0 0.00 0.21 0.03 93 1019.4
20260506112029 53 0 0.0 0.0 0.00 0.21 0.03 93 1019.4
20260506111542 53 0 0.0 0.0 0.00 0.21 0.03 93 1019.3
20260506111030 53 0 0.0 0.0 0.00 0.21 0.03 93 1019.3
20260506110530 53 0 0.0 0.0 0.00 0.21 0.03 93 1019.2
20260506110038 53 0 0.0 1.0 0.00 0.21 0.03 93 1019.1
20260506105531 53 0 0.0 1.0 0.01 0.23 0.03 93 1019.0
20260506105031 53 0 0.0 1.0 0.01 0.23 0.03 93 1019.1
20260506104541 53 0 0.0 0.0 0.01 0.23 0.03 93 1019.0
20260506104030 53 0 0.0 0.0 0.01 0.23 0.03 93 1019.1
20260506103530 53 0 0.0 0.0 0.01 0.23 0.03 93 1019.1
20260506103042 53 0 0.0 0.0 0.01 0.23 0.03 93 1018.9
20260506102534 53 0 0.0 0.0 0.01 0.23 0.03 93 1018.9
20260506102029 53 0 0.0 0.0 0.01 0.23 0.03 93 1018.8
20260506101541 53 0 0.0 0.0 0.01 0.23 0.03 93 1018.8
20260506101028 53 0 0.0 0.0 0.01 0.23 0.03 93 1018.8
20260506100530 53 0 0.0 0.0 0.01 0.23 0.03 93 1018.7
20260506100040 53 0 0.0 0.0 0.01 0.23 0.03 93 1018.7
20260506095530 53 0 0.0 0.0 0.00 0.24 0.02 93 1018.8
20260506095031 53 0 0.0 0.0 0.00 0.24 0.02 92 1018.8
20260506094544 53 0 0.0 0.0 0.00 0.24 0.02 92 1018.8
20260506094029 53 0 0.0 0.0 0.00 0.24 0.02 92 1018.7
20260506093532 53 0 0.0 0.0 0.00 0.24 0.02 92 1018.7
20260506093100 53 0 0.0 0.0 0.00 0.24 0.02 92 1018.7
20260506092530 53 0 0.0 0.0 0.01 0.24 0.02 92 1018.7
20260506092030 53 0 0.0 0.0 0.01 0.24 0.02 92 1018.7
20260506091547 53 0 0.0 0.0 0.01 0.24 0.02 92 1018.7
20260506091030 53 0 0.0 1.0 0.01 0.24 0.02 92 1018.7
20260506090529 53 0 0.0 1.0 0.01 0.24 0.02 92 1018.8
20260506090042 53 0 0.0 1.0 0.01 0.24 0.02 92 1018.7
20260506085530 53 0 0.0 0.0 0.01 0.27 0.02 91 1018.7
20260506085030 53 0 0.0 0.0 0.01 0.27 0.02 91 1018.9
20260506084538 53 0 0.0 1.0 0.01 0.27 0.02 91 1018.8
20260506084031 53 0 0.0 2.0 0.01 0.27 0.02 91 1018.9
20260506083531 53 0 0.0 2.0 0.01 0.27 0.02 91 1018.8
20260506083040 53 0 0.0 1.0 0.01 0.27 0.02 91 1018.9
20260506082531 54 0 0.0 1.0 0.00 0.26 0.01 91 1018.8
20260506082030 54 0 0.0 2.0 0.01 0.26 0.01 91 1018.7
20260506081548 54 0 0.0 2.0 0.01 0.26 0.01 91 1018.8
20260506081029 54 0 0.0 2.0 0.01 0.26 0.01 90 1018.7
20260506080529 54 0 0.0 2.0 0.01 0.26 0.01 90 1018.7
20260506073041 54 0 0.0 0.0 0.01 0.27 0.01 88 1018.5
20260506072531 54 0 0.0 0.0 0.02 0.27 0.01 88 1018.4
20260506072029 54 0 0.0 0.0 0.01 0.26 0.00 88 1018.4
20260506071542 54 0 0.0 0.0 0.01 0.26 0.00 88 1018.4
20260506071030 54 0 0.0 0.0 0.01 0.26 0.00 88 1018.3
20260506070533 54 0 0.0 1.0 0.01 0.26 0.00 88 1018.2
20260506062030 54 0 0.0 0.0 0.01 0.26 0.25 89 1018.2
20260506061556 54 0 0.0 0.0 0.01 0.26 0.25 89 1018.0
20260506061030 54 0 0.0 0.0 0.01 0.26 0.25 89 1018.0
20260506060530 54 0 0.0 0.0 0.02 0.26 0.25 89 1018.0
20260506051030 54 0 0.0 0.0 0.02 0.25 0.24 88 1017.4
20260506050530 54 0 0.0 0.0 0.01 0.24 0.23 88 1017.4
20260506045029 54 0 0.0 1.0 0.02 0.25 0.23 88 1017.4
20260506044541 54 0 0.0 1.0 0.02 0.25 0.23 88 1017.4
20260506044031 54 0 0.0 1.0 0.02 0.25 0.23 88 1017.3
20260506043529 54 0 0.0 0.0 0.02 0.25 0.23 88 1017.2
20260506043038 54 0 0.0 0.0 0.02 0.25 0.23 88 1017.2
20260506042532 55 0 0.0 0.0 0.01 0.24 0.22 87 1017.2
20260506042032 55 0 0.0 0.0 0.01 0.24 0.22 87 1017.2
20260506041536 55 0 0.0 0.0 0.02 0.24 0.22 87 1017.1
20260506041032 55 0 0.0 1.0 0.02 0.24 0.22 87 1017.0
20260506040534 55 0 0.0 1.0 0.02 0.24 0.22 87 1017.0
20260506040038 55 0 0.0 0.0 0.02 0.24 0.22 87 1016.9
20260506035532 55 0 0.0 1.0 0.02 0.24 0.22 87 1016.8
20260506035029 55 0 0.0 2.0 0.01 0.23 0.21 86 1016.8
20260506034544 55 0 0.0 3.0 0.01 0.23 0.21 86 1016.6
20260506034030 55 0 0.0 3.0 0.01 0.23 0.21 86 1016.5
20260506033529 55 331 0.0 3.0 0.01 0.23 0.21 86 1016.4
20260506033043 55 0 0.0 1.0 0.02 0.23 0.21 86 1016.5
20260506032532 55 0 0.0 0.0 0.02 0.23 0.21 86 1016.4
20260506032033 55 0 0.0 0.0 0.02 0.23 0.21 86 1016.6
20260506031542 55 0 0.0 0.0 0.01 0.22 0.20 86 1016.5
20260506031032 55 0 0.0 0.0 0.01 0.22 0.20 86 1016.3
20260506030533 55 0 0.0 1.0 0.01 0.22 0.20 85 1016.3
20260506030038 55 0 0.0 1.0 0.01 0.22 0.20 85 1016.4
20260506025533 55 0 0.0 3.0 0.01 0.23 0.20 85 1016.2
20260506025031 55 0 0.0 3.0 0.01 0.23 0.20 85 1016.2
20260506024540 55 0 0.0 3.0 0.01 0.23 0.20 85 1016.1
20260506024029 56 0 0.0 4.0 0.02 0.23 0.20 84 1016.0
20260506023533 56 343 0.0 4.0 0.02 0.23 0.20 84 1015.9
20260506023048 56 335 1.0 5.0 0.01 0.22 0.19 84 1015.8
20260506022531 56 337 0.0 5.0 0.01 0.22 0.19 84 1015.8
20260506022029 56 334 2.0 5.0 0.01 0.22 0.19 83 1015.7
20260506021533 57 329 0.0 2.0 0.01 0.22 0.19 83 1015.6
20260506021029 57 289 0.0 1.0 0.01 0.22 0.19 82 1015.6
20260506020530 57 0 0.0 3.0 0.01 0.22 0.19 82 1015.6
20260506020108 57 0 0.0 5.0 0.01 0.22 0.19 82 1015.4
20260506015529 57 295 1.0 5.0 0.01 0.22 0.19 81 1015.3
20260506015032 57 290 0.0 4.0 0.01 0.22 0.19 81 1015.3
20260506014542 57 0 1.0 4.0 0.01 0.22 0.19 80 1015.3
20260506014028 57 287 0.0 2.0 0.00 0.21 0.18 80 1015.3
20260506013531 58 327 0.0 4.0 0.00 0.21 0.18 81 1015.4
20260506013039 58 0 1.0 4.0 0.00 0.21 0.18 80 1015.3
20260506012531 58 283 1.0 6.0 0.00 0.21 0.18 80 1015.2
20260506012031 58 0 1.0 6.0 0.00 0.21 0.18 80 1015.4
20260506011540 58 0 0.0 4.0 0.00 0.21 0.18 80 1015.4
20260506011030 58 298 0.0 4.0 0.00 0.21 0.18 80 1015.3
20260506010531 58 335 0.0 2.0 0.00 0.21 0.18 79 1015.3
20260506010037 58 0 0.0 0.0 0.00 0.21 0.18 80 1015.2